Regional Weather Roundup
Issued by NWS Charleston, WV

Home | Current Version | Previous Version | Graphics & Text | Print | Product List | Glossary On
Versions: 1 2 3 4 5 6 7 8 9 10 11 12 13 14 15 16 17 18 19 20 21 22 23 24 25 26 27 28 29 30 31 32 33 34 35 36 37 38 39 40 41 42 43 44 45 46 47 48 49 50
426
ASUS41 KRLX 081510
RWRRLX
West Virginia Regional Weather Roundup
National Weather Service Charleston WV
1000 AM EST MON FEB 08 2016

Note: "fair" indicates few or no clouds below 12,000 feet with no
significant weather and/or obstructions to visibility.

WVZ003-081600-
Northern Panhandle of West Virginia

CITY           SKY/WX    TMP DP  RH WIND       PRES   REMARKS
WHEELING       CLOUDY    41  23  48 S9        29.61F
$$

WVZ009-081600-
Northwest West Virginia

CITY           SKY/WX    TMP DP  RH WIND       PRES   REMARKS
PARKERSBURG    LGT SNOW  36  32  85 SW6       29.68S FOG
$$

WVZ006-081600-
Western West Virginia

CITY           SKY/WX    TMP DP  RH WIND       PRES   REMARKS
HUNTINGTON     CLOUDY    38  34  85 SW7       29.66F
$$

WVZ015-081600-
West Central West Virginia

CITY           SKY/WX    TMP DP  RH WIND       PRES   REMARKS
CHARLESTON     CLOUDY    40  26  57 W7        29.66S
$$

WVZ022-031-081600-
North Central West Virginia

CITY           SKY/WX    TMP DP  RH WIND       PRES   REMARKS
CLARKSBURG     CLOUDY    36  29  75 CALM      29.64F
MORGANTOWN     CLOUDY    42  21  43 S10       29.66F
$$

WVZ025-035-042-045-081600-
Southern West Virginia

CITY           SKY/WX    TMP DP  RH WIND       PRES   REMARKS
BECKLEY        CLOUDY    37  20  50 SE7       29.65F
LOGAN          CLOUDY    39  25  56 VRB3      29.65F
BLUEFIELD      CLOUDY    36  19  50 VRB7      29.67F
LEWISBURG      CLOUDY    34  28  79 N3        29.68F
$$

WVZ047-081600-
Northern Mountains of West Virginia

CITY           SKY/WX    TMP DP  RH WIND       PRES   REMARKS
ELKINS         CLOUDY    30  25  81 CALM      29.68S
$$

WVZ052-081600-
Eastern Panhandle of West Virginia

CITY           SKY/WX    TMP DP  RH WIND       PRES   REMARKS
MARTINSBURG      N/A     35  27  72 CALM      29.79S
PETERSBURG       N/A     32  27  83 CALM      29.75F
$$




USA.gov is the U.S. government's official web portal to all federal, state and local government web resources and services.